Winner, SD

11:13 AM CDT on July 23, 2016 (GMT -0500)
Winner

Weather History for KICR - March, 2014

Change the Weather History Date:

Monday, March 31, 2014

  Actual Average Record
Temperature  
Mean Temperature 34 °F 42 °F  
Max Temperature 49 °F 54 °F 83 °F (2012)
Min Temperature 19 °F 30 °F 19 °F (2009)
Degree Days  
Heating Degree Days 31 23  
Month to date heating degree days 950 875  
Since 1 July heating degree days 6283 5885  
Cooling Degree Days 0 0  
Month to date cooling degree days 0 0  
Year to date cooling degree days 0 0  
Moisture  
Dew Point 21 °F    
Average Humidity 76    
Maximum Humidity 92    
Minimum Humidity 59    
Precipitation  
Precipitation T in 0.09 in 0.19 in (2009)
Month to date precipitation 0.04 1.38  
Year to date precipitation 0.12 2.14  
Sea Level Pressure  
Sea Level Pressure 29.69 in    
Wind  
Wind Speed 27 mph (NNW)    
Max Wind Speed 43 mph    
Max Gust Speed 60 mph    
Visibility 4 miles    
Events Fog , Rain , Snow    
T = Trace of Precipitation, MM = Missing Value Source: NWS Daily Summary

Daily Weather History Graph

Daily Weather History Graph

Search for Another Location

Airport or City:

Trip Planner

Search our weather history database for the weather conditions in past years. The results will help you decide how hot, cold, wet, or windy it might be!

Date:

Astronomy

Mar. 31, 2014 Rise Set
Actual Time 7:22 AM CDT 8:04 PM CDT
Civil Twilight 6:54 AM CDT 8:33 PM CDT
Nautical Twilight 6:19 AM CDT 9:07 PM CDT
Astronomical Twilight 5:44 AM CDT 9:43 PM CDT
Moon 7:45 AM CDT (3/31) 9:28 PM CDT (3/31)
Length of Visible Light 13h 39m
Length of Day
12h 42m
New Moon, 1% of the Moon is Illuminated
Mar 31
New Moon
Apr 7
First Quarter
Apr 15
Full
Apr 22
Last Quarter
Apr 29
New

Hourly Weather History & Observations

Time (CDT) Temp. Windchill Dew Point Humidity Pressure Visibility Wind Dir Wind Speed Gust Speed Precip Events Conditions
12:53 AM 51.1 °F - 37.0 °F 59% 29.43 in 10.0 mi NE 11.5 mph - N/A   Clear
1:53 AM 46.9 °F - 37.9 °F 71% 29.40 in 10.0 mi NE 13.8 mph - N/A   Clear
2:53 AM 46.0 °F 39.3 °F 37.9 °F 73% 29.37 in 10.0 mi ENE 16.1 mph - N/A   Clear
3:53 AM 44.1 °F 37.7 °F 37.9 °F 79% 29.34 in 8.0 mi ENE 12.7 mph - N/A   Clear
4:50 AM 39.2 °F 32.0 °F 35.6 °F 87% 29.35 in 6.0 mi North 11.5 mph - N/A   Partly Cloudy
4:53 AM 39.9 °F 31.8 °F 36.0 °F 86% 29.34 in 6.0 mi NNW 15.0 mph - N/A   Partly Cloudy
5:09 AM 37.9 °F 29.6 °F 35.1 °F 89% 29.35 in 5.0 mi North 13.8 mph - N/A   Mostly Cloudy
5:16 AM 37.9 °F 29.6 °F 35.1 °F 89% 29.36 in 5.0 mi North 13.8 mph - N/A   Mostly Cloudy
5:53 AM 36.0 °F 25.0 °F 33.1 °F 89% 29.39 in 5.0 mi NNW 20.7 mph - N/A   Overcast
6:53 AM 34.0 °F 21.5 °F 30.9 °F 89% 29.40 in 5.0 mi NNW 24.2 mph 31.1 mph N/A   Overcast
7:24 AM 33.1 °F 20.3 °F 30.0 °F 89% 29.43 in 5.0 mi NW 24.2 mph 33.4 mph N/A   Overcast
7:53 AM 32.0 °F 18.6 °F 28.9 °F 88% 29.47 in 6.0 mi NNW 25.3 mph 34.5 mph N/A   Overcast
8:53 AM 30.0 °F 16.0 °F 27.0 °F 88% 29.51 in 6.0 mi NNW 25.3 mph 35.7 mph N/A   Overcast
9:26 AM 30.0 °F 14.7 °F 27.0 °F 88% 29.49 in 6.0 mi NNW 31.1 mph 39.1 mph N/A   Overcast
9:53 AM 28.9 °F 13.0 °F 26.1 °F 89% 29.54 in 7.0 mi NNW 32.2 mph 42.6 mph N/A   Overcast
10:44 AM 30.0 °F 13.8 °F 26.1 °F 85% 29.54 in 5.0 mi NNW 35.7 mph 46.0 mph 0.00 in Snow Light Snow
10:53 AM 30.0 °F 14.2 °F 27.0 °F 88% 29.57 in 4.0 mi NNW 33.4 mph 44.9 mph 0.00 in Snow Light Snow
11:36 AM 28.0 °F 11.5 °F 25.0 °F 88% 29.59 in 3.0 mi NW 33.4 mph 40.3 mph 0.00 in Rain Light Freezing Rain
11:45 AM 27.0 °F 9.6 °F 24.1 °F 89% 29.61 in 2.5 mi NW 35.7 mph 44.9 mph 0.00 in Rain Light Freezing Rain
11:53 AM 27.0 °F 9.4 °F 23.0 °F 85% 29.64 in 2.5 mi NW 36.8 mph 49.5 mph 0.00 in Rain Light Freezing Rain
12:26 PM 21.0 °F - 18.0 °F 88% 29.62 in 2.5 mi North - - 0.00 in Snow Light Snow
12:43 PM 19.9 °F - 17.1 °F 89% 29.62 in 2.5 mi North - - 0.00 in   Overcast
12:50 PM 19.4 °F - 15.8 °F 86% 29.62 in 3.0 mi North - - 0.00 in   Overcast
12:53 PM 19.9 °F - 16.0 °F 85% 29.67 in 3.0 mi North - - 0.00 in   Overcast
1:14 PM 19.9 °F - 15.1 °F 81% 29.63 in 3.0 mi North - - 0.00 in Snow Light Snow
1:26 PM 19.9 °F - 15.1 °F 81% 29.64 in 2.5 mi North - - 0.00 in Snow Light Snow
1:28 PM 19.9 °F - 14.0 °F 78% 29.64 in 2.0 mi North - - 0.00 in Snow Light Snow
1:36 PM 19.0 °F - 14.0 °F 81% 29.65 in 3.0 mi North - - 0.00 in Snow Light Snow
1:41 PM 19.0 °F - 14.0 °F 81% 29.65 in 2.5 mi North - - 0.00 in Snow Light Snow
1:51 PM 19.4 °F - 14.0 °F 80% 29.66 in 5.0 mi North - - 0.00 in Snow Light Snow
1:53 PM 19.0 °F - 14.0 °F 81% 29.71 in 5.0 mi North - - 0.00 in Snow Light Snow
2:12 PM 19.9 °F 0.2 °F 15.1 °F 81% 29.67 in 2.0 mi NNW 34.5 mph 48.3 mph 0.00 in Snow Light Snow
2:21 PM 19.9 °F - 14.0 °F 78% 29.68 in 3.0 mi North - - 0.00 in Snow Light Snow
2:43 PM 21.0 °F 0.5 °F 16.0 °F 81% 29.69 in 2.0 mi NW 40.3 mph 59.8 mph 0.00 in Snow Light Snow
2:53 PM 21.0 °F 1.9 °F 16.0 °F 81% 29.74 in 2.0 mi NW 33.4 mph 47.2 mph 0.00 in Snow Light Snow
3:00 PM 21.0 °F 0.9 °F 17.1 °F 85% 29.69 in 1.2 mi NW 38.0 mph 50.6 mph 0.00 in Snow Light Snow
3:07 PM 21.0 °F 1.4 °F 16.0 °F 81% 29.70 in 2.0 mi NW 35.7 mph 50.6 mph 0.00 in Snow Light Snow
3:19 PM 21.0 °F 1.9 °F 16.0 °F 81% 29.71 in 1.5 mi NW 33.4 mph 47.2 mph 0.00 in Snow Light Snow
3:53 PM 21.0 °F 3.3 °F 17.1 °F 85% 29.78 in 1.2 mi NW 27.6 mph 44.9 mph 0.00 in Snow Light Snow
3:57 PM 21.0 °F 1.2 °F 17.1 °F 85% 29.73 in 0.8 mi NW 36.8 mph 43.7 mph 0.00 in Snow Light Snow
4:27 PM 21.9 °F 1.9 °F 17.1 °F 82% 29.75 in 1.0 mi NW 39.1 mph 56.4 mph 0.00 in Snow Light Snow
4:43 PM 21.9 °F 2.6 °F 17.1 °F 82% 29.76 in 0.5 mi NNW 35.7 mph 48.3 mph 0.00 in Snow Snow
4:53 PM 21.9 °F 2.2 °F 18.0 °F 85% 29.83 in 0.5 mi NW 38.0 mph 55.2 mph 0.00 in Fog , Snow Snow
5:19 PM 23.0 °F 4.9 °F 19.0 °F 85% 29.79 in 0.8 mi NW 32.2 mph 46.0 mph 0.00 in Snow Light Snow
5:26 PM 23.0 °F 4.4 °F 18.0 °F 81% 29.80 in 2.0 mi NW 34.5 mph 47.2 mph 0.00 in Snow Light Snow
5:35 PM 23.0 °F 4.1 °F 19.0 °F 85% 29.80 in 1.0 mi NW 35.7 mph 47.2 mph 0.00 in Snow Light Snow
5:40 PM 23.0 °F 5.7 °F 19.0 °F 85% 29.81 in 0.8 mi NW 28.8 mph 47.2 mph 0.00 in Snow Light Snow
5:50 PM 21.2 °F 0.7 °F 17.6 °F 86% 29.81 in 1.0 mi NNW 40.3 mph 51.8 mph 0.00 in Snow Light Snow
5:53 PM 21.9 °F 2.2 °F 17.1 °F 82% 29.88 in 1.2 mi NNW 38.0 mph 51.8 mph 0.00 in Snow Light Snow
6:53 PM 23.0 °F 3.9 °F 18.0 °F 81% 29.94 in 1.2 mi NW 36.8 mph 44.9 mph 0.00 in Snow Light Snow
7:53 PM 23.0 °F 5.4 °F 19.0 °F 85% 29.98 in 1.2 mi NW 29.9 mph 43.7 mph 0.00 in Snow Light Snow
8:08 PM 24.1 °F 5.4 °F 19.9 °F 84% 29.92 in 2.5 mi NW 36.8 mph 43.7 mph 0.00 in Snow Light Snow
8:39 PM 23.0 °F 5.1 °F 19.0 °F 85% 29.94 in 2.0 mi NW 31.1 mph 40.3 mph 0.00 in Snow Light Snow
8:49 PM 23.0 °F 6.0 °F 19.4 °F 86% 29.95 in 1.5 mi WNW 27.6 mph 39.1 mph 0.00 in Snow Light Snow
8:53 PM 23.0 °F 6.3 °F 19.0 °F 85% 30.03 in 1.2 mi WNW 26.5 mph 35.7 mph 0.00 in Snow Light Snow
9:16 PM 23.0 °F 5.7 °F 18.0 °F 81% 29.98 in 2.5 mi NW 28.8 mph 36.8 mph 0.00 in Snow Light Snow
9:22 PM 23.0 °F 6.3 °F 18.0 °F 81% 29.98 in 3.0 mi NW 26.5 mph 36.8 mph 0.00 in Snow Light Snow
9:53 PM 24.1 °F 7.4 °F 16.0 °F 71% 30.08 in 8.0 mi NW 27.6 mph 40.3 mph 0.00 in Snow Light Snow
10:29 PM 23.0 °F 5.7 °F 15.1 °F 72% 30.02 in 10.0 mi NW 28.8 mph 40.3 mph 0.00 in   Overcast
10:53 PM 24.1 °F 7.1 °F 15.1 °F 69% 30.10 in 10.0 mi NW 28.8 mph 35.7 mph 0.00 in   Overcast
11:53 PM 23.0 °F 6.6 °F 14.0 °F 68% 30.12 in 10.0 mi NW 25.3 mph 31.1 mph N/A   Overcast